Location: Gand�
(15.0971°N, 12.6564°W)
Time: 14:22:31
(UTC+00:00)

Chandra Rocket (1) - Pass Details

Date: 07 August 2020
Orbit: 336 x 11017 km, 28.4° (Epoch: 19 September)

Event Time Altitude Azimuth Distance (km) Brightness Sun altitude
Exits shadow 06:09:26 - 247° (WSW) 4,761 5.9 -6.6°
Reaches altitude 10° 06:10:58 10° 248° (WSW) 4,120 5.6 -6.3°
Maximum altitude 06:19:24 73° 332° (NNW) 733 2.4 -4.4°
Drops below altitude 10° 06:22:32 10° 58° (ENE) 1,591 5.9 -3.6°
Sets 06:23:59 0° 61° (ENE) 2,262 7.2 -3.3°
